OBJECT BQ, 60530

Orbit data source: Space-Track

You're viewing an Uncataloged Satellite

Recently launched and/or uncataloged satellites may have evolving metadata. Metadata may include but not limited to: Owner, Maufacturer, Bus, Motor, and Mission.

OBJECT BQ, 60530 is a satellite in SSO that was launched on Fri, 16 Aug 2024 UTC via an FALCON 9 launch vehicle from the Air Force Western Test Range (AFWTR). Unknown objects in Earth's orbit typically refer to objects detected orbiting the Earth but have not yet been identified or cataloged. These objects could be anything from previously untracked satellites, spent rocket stages, debris from satellite collisions, or even natural meteoroids temporarily captured by Earth's gravity.

Loading next visibility...
Identifier
60530, 2024-149BQ
Orbit
SSO
Country
Flag of TBDTBD
Related business
Manufacturer
NANAV/PYRAS
Mission
Operational Civil Imaging
Bus & Motor
CUBESAT 3U, Unknown motor
Mass
5 kg wet, 5 kg dry
Launch date (UTC)
2024-08-16 (1 year ago)
Launch vehicle
FALCON 9
Launch site
Air Force Western Test Range (AFWTR)
Object type
Unknown
Shape & HBR
Box, 0.1 m
Radar Cross Section
0.080 m², Small (<0.1 m²)

Expand to show TLE details & history
Last TLE update: 9 hours ago

TLE from 9 hours ago
0 OBJECT BQ
1 60530U 24149BQ  25289.47848673  .00003517  00000-0  32654-3 0  9996
2 60530  97.7052   3.5686 0001621  94.0712 266.0694 14.95037393 63520
Epoch: 2025-10-16T11:29Z
TLE epoch observation values (Epoch: 2025-10-16T11:29:01.253Z)
Latitude
-0.00002°
Longitude
166.07575°
Altitude
585.382 km
Speed
7.568 km/s
True Right ascension
00h 14m 16s
True Declination
0° 00' 00"
Sunlit
Object was in full shadow at epoch
Visualization orbit readout
Latitude
Unknown
Longitude
Unknown
Altitude
Unknown
Speed
Unknown
Apparent Right ascension
Unknown
Apparent Declination
Unknown
Sunlit
N/A
Visualization observer readout
Local Sidereal Time
14:42:00
Azimuth
Unknown
Elevation
Unknown
Doppler factor
Unknown
Orbital elements
Apogee altitude
580.397 km
Perigee altitude
578.141 km
Semi-major axis
6,957.406 km
Eccentricity
0.00016
Inclination
97.7052°
RAAN
3.5686°
Arg. of periapsis
94.0712°
True anomaly
266.05087°
Mean anomaly
266.0694°
Eccentric anomaly
266.06013°
Mean motion
3.74 °/min
Orbital period
96.26 mins
BSTAR
0.00032654
Loading maneuver chart data...
Computing Atmospheric mass density...
Loading historical data...
Loading historical data...
Loading historical data...
Loading historical data...
Loading historical data...
Loading historical data...
Loading historical data...

Documentation

Showing up to 5 results
|